Kosmos-894

operational
NORAD ID: 9846 Int'l Des: 1977-013 Owner: VMF Country: SU
LEOCIRCULARPOLAR

About Kosmos-894

Description loading...

Live Position

Loading 3D Globe...

Upcoming Passes

Altitude History

Altitude vs Time

uPlot chart will show altitude changes over time

Two-Line Element Set

1 9846U 77013A 26061.10630832 .00000056 00000-0 43386-4 0 9992
2 9846 82.9472 176.3735 0030788 145.4315 27.7863 13.74198456457469
Epoch: Mar 2, 2026 • Age: 28 hours

Current Status

Altitude 993.9 km
Velocity 7.36 km/s
Sub-Earth Point 45.87°N, 40.31°W
Type other

Large Constellations

Loading constellations...